User: anonymous   Login
Location: Hepcat Sky Observatory
(29.9800°N, 95.6500°W)
Time: 17:04:12
(UTC-05:00)
Language:

Cosmos 1602 Rocket - Orbit

View from above orbital plane
View from above orbital plane
View from above satellite
View from above satellite

Ground track
Ground track

The orbit data is extracted from the following two-line orbital elements,

1 15332U 84105B   16179.10875634  .00000107  00000-0  10073-4 0  9993
2 15332  82.5341 159.9600 0022791 100.4091 313.8407 14.83245113713958
Epoch (UTC): 27 June 2016 02:36:36
Eccentricity: 0.0022791
inclination: 82.5341°
perigee height: 603 km
apogee height: 635 km
right ascension of ascending node: 159.9600°
argument of perigee: 100.4091°
revolutions per day: 14.83245113
mean anomaly at epoch: 313.8407°
orbit number at epoch: 71395

The dashed part of the orbit path shows where the satellite is in the earth's shadow,  

DLR